Wind_Speed
9 11 14 16 18 18 16 15 18 20 20 20 22 22 23 25 27 25 23 23 22 19 18 19 18 18 18 18 18 19 19 19 18 17 16 16 16 16 16 17 16 16 15 15 15 15 15 15 14 14 15 15 15 13 12 13 12 11 12 14 16 12 6 4 4 4 7 8 7 7 6 4 5 7 9 9 9 8 8 7 7 7 7 7 7
7 11 15 17 17 16 14 14 17 19 19 21 23 23 24 26 27 25 24 23 21 18 18 20 19 19 19 18 18 18 19 19 19 18 17 17 16 16 17 17 16 15 15 15 15 16 15 14 14 14 16 16 15 15 14 14 14 12 12 14 15 12 9 7 6 6 7 7 7 7 7 6 5 5 7 8 8 8 7 7 7 7 7 7 7
10 13 15 17 16 14 13 14 17 19 20 23 25 25 26 28 26 24 23 22 20 19 20 21 20 20 19 18 18 18 19 19 19 18 18 17 17 17 17 16 15 15 15 14 15 16 15 15 15 15 16 17 17 16 16 16 15 14 13 13 13 13 12 10 10 10 10 9 7 6 6 7 5 4 5 7 8 8 7 7 7 7 8 8 8
13 15 18 18 17 15 16 16 17 20 22 26 27 27 27 27 25 23 23 21 20 20 21 21 20 20 19 18 18 19 19 19 19 19 19 17 17 16 15 15 15 13 13 13 14 15 16 16 16 15 16 18 17 16 16 16 16 15 14 14 14 14 14 14 15 15 14 13 10 7 6 6 6 5 5 7 9 8 8 7 7 7 7 8 8
16 17 19 20 18 17 18 17 18 21 23 26 28 28 27 27 26 24 23 23 22 21 21 21 20 20 19 18 19 20 19 18 18 18 18 17 16 16 14 14 12 10 10 11 12 14 15 16 16 16 17 17 16 15 15 15 16 15 14 14 14 14 15 18 19 19 17 15 12 9 7 8 8 7 6 7 9 9 9 9 9 9 9 9 9
15 18 19 20 20 19 18 18 19 21 23 26 28 29 28 27 27 25 25 25 23 21 22 22 22 21 18 18 20 20 19 18 18 17 17 17 16 15 14 12 10 8 7 9 11 13 15 17 18 17 16 16 15 13 12 12 14 14 14 13 12 12 14 16 18 19 17 15 12 9 8 8 8 8 7 7 9 10 11 11 12 11 12 12 12
11 14 16 17 19 20 18 18 20 21 23 26 29 30 29 28 26 25 26 26 24 22 23 23 23 20 19 20 22 20 20 20 18 17 17 16 15 14 14 12 9 7 7 9 11 13 16 19 19 18 17 15 13 11 10 10 12 13 12 12 11 10 10 10 11 14 16 15 11 8 7 7 7 9 9 10 11 12 13 15 15 14 14 15 15
11 11 11 11 14 17 18 20 21 21 22 26 30 31 30 29 27 27 29 29 25 23 24 24 23 21 22 24 24 22 21 21 19 17 16 15 14 14 15 12 10 8 8 9 10 11 14 16 16 16 16 14 11 10 9 10 12 12 12 11 11 9 8 8 10 13 14 14 11 8 7 7 8 9 10 12 13 14 14 16 16 15 16 18 18
12 12 11 10 10 12 15 18 21 22 23 28 32 32 31 30 28 29 32 31 27 24 25 24 22 22 26 27 25 24 23 22 20 18 16 15 15 15 15 13 11 9 9 10 11 11 11 12 13 14 14 13 10 9 8 7 9 10 10 10 9 8 8 8 10 12 13 13 12 11 10 9 8 10 11 12 13 15 15 17 19 18 18 21 21
17 16 13 11 10 11 12 14 18 20 24 30 34 33 32 31 29 28 30 31 29 27 25 23 21 23 27 28 27 26 24 23 21 19 17 17 16 16 15 13 12 11 9 10 11 12 12 12 12 14 14 13 12 10 8 7 7 7 9 10 8 8 9 10 11 11 12 13 13 13 13 12 11 12 14 14 15 17 18 20 22 21 21 23 23
20 20 18 13 10 11 12 12 13 16 21 30 35 33 32 31 29 28 30 32 31 29 26 24 22 23 27 29 28 27 25 23 21 20 20 19 18 16 15 14 13 12 10 9 10 13 15 14 14 15 15 14 13 11 9 8 8 8 9 9 9 8 9 10 11 12 12 13 14 14 14 13 12 13 15 15 16 18 19 20 22 22 21 22 22
21 20 19 17 14 12 12 12 12 14 18 27 34 33 32 30 28 28 31 33 32 29 27 26 24 23 26 28 27 26 25 23 20 19 19 20 20 18 16 15 15 13 10 10 12 14 15 15 14 15 15 14 12 11 10 9 9 9 10 10 9 8 8 9 9 10 11 11 12 13 12 11 11 12 13 14 15 15 16 16 18 19 19 19 21
22 20 19 18 17 15 13 13 13 12 15 25 32 33 32 31 29 30 33 34 33 30 28 27 25 24 25 26 24 24 24 22 19 16 16 18 21 19 17 17 17 14 11 11 13 14 14 14 15 15 14 13 12 11 10 9 9 10 10 11 11 10 10 9 9 9 9 9 9 10 11 11 12 13 14 15 16 16 17 18 19 20 21 22 23
20 17 17 18 18 17 15 12 13 12 15 23 30 31 32 32 32 33 33 34 33 31 29 29 26 24 26 26 23 23 23 21 20 16 14 16 19 19 17 18 18 16 15 14 14 14 14 14 15 15 14 13 11 10 9 9 9 9 8 9 10 10 11 11 10 10 10 10 11 11 12 13 13 15 16 17 18 19 20 21 22 23 25 25 26
19 16 16 17 16 16 14 9 12 13 16 22 28 30 33 34 33 34 34 34 33 31 30 29 28 26 26 26 23 22 21 21 21 18 15 15 18 18 17 18 19 19 18 17 17 16 15 15 15 14 13 12 11 10 9 8 9 8 8 7 8 8 8 9 9 10 11 12 13 14 15 15 16 17 18 20 21 22 23 23 24 25 26 27 27
21 19 17 17 15 13 11 8 12 15 17 23 28 30 33 35 33 33 35 35 34 34 32 30 28 27 27 26 25 23 22 22 22 20 17 16 17 18 18 18 20 20 19 19 20 18 18 17 16 15 14 14 13 12 10 8 8 8 7 6 6 6 6 7 8 10 12 14 15 17 18 19 20 21 22 23 23 24 25 25 24 24 25 25 25
23 22 20 19 16 12 9 6 10 15 18 23 28 31 32 34 33 31 33 35 34 34 34 30 28 27 26 26 25 24 23 24 23 22 19 16 17 19 19 18 19 19 19 20 20 20 19 18 16 15 15 14 14 14 12 10 8 8 7 7 7 8 9 10 11 13 15 17 18 20 20 21 22 23 23 24 24 23 23 23 22 22 23 24 25
20 22 22 22 19 15 9 3 6 13 16 19 26 29 30 31 32 32 33 35 33 31 31 29 27 26 26 26 26 25 25 24 23 22 21 17 17 19 19 19 19 19 20 21 21 21 20 18 16 15 14 13 14 14 12 11 11 11 11 12 13 13 13 14 15 17 18 19 20 21 22 22 22 22 22 23 23 23 22 22 22 23 24 24 25
18 18 20 21 21 20 15 10 4 5 13 18 23 26 27 27 30 31 32 32 30 28 28 28 28 28 27 27 26 25 25 24 23 21 20 18 17 18 19 19 20 21 22 23 22 19 18 16 15 14 12 11 12 13 12 13 15 15 16 16 17 17 16 17 19 21 21 21 21 20 20 20 20 21 22 22 22 22 22 21 21 22 22 22 22
16 14 13 16 19 22 21 20 18 12 7 12 20 25 26 25 24 23 24 26 27 28 28 29 29 29 28 27 27 26 25 25 23 20 19 18 17 17 18 19 21 22 22 22 19 13 9 8 8 7 7 9 12 13 13 13 15 16 17 17 17 18 18 19 21 22 23 23 22 20 20 20 21 21 21 21 20 19 18 18 18 18 18 17 17
16 13 10 10 13 16 18 20 22 22 18 12 13 19 23 24 22 20 21 25 28 29 30 31 31 30 28 26 26 26 25 24 23 20 19 18 16 16 16 16 17 18 16 16 16 12 9 8 8 10 10 10 11 13 13 13 14 16 17 18 19 21 22 22 23 24 24 25 24 22 20 20 19 18 18 17 17 16 15 15 14 14 14 14 13
17 15 12 10 10 12 13 14 16 18 19 16 14 13 14 16 19 21 23 26 26 24 23 24 25 25 25 24 23 23 22 21 21 20 18 17 15 15 14 13 15 16 14 14 16 16 14 13 15 17 17 15 14 15 15 15 16 17 18 19 20 21 22 22 22 22 22 22 19 16 15 14 14 14 14 15 15 15 15 14 14 14 15 14 13
17 17 16 13 12 11 11 11 12 14 14 12 11 12 12 11 12 14 16 18 19 16 14 15 16 17 18 17 17 17 17 16 16 15 14 13 12 11 12 13 14 14 13 11 11 12 13 15 17 18 18 17 17 17 17 17 17 17 18 17 17 17 17 17 17 16 16 14 12 11 10 11 12 12 13 14 14 14 14 14 15 16 16 14 11
18 19 19 17 15 14 12 10 9 10 11 10 8 9 9 7 6 6 7 9 11 11 10 10 11 12 13 13 13 13 13 12 11 11 10 10 10 10 11 11 11 12 11 10 10 11 12 14 15 16 16 16 17 16 16 16 16 15 14 13 12 12 11 11 11 11 11 11 11 11 11 12 12 12 13 14 14 15 16 17 18 17 15 11 7
20 22 23 22 19 16 14 13 11 9 8 7 7 7 7 6 5 4 3 4 5 6 7 7 6 7 8 8 8 8 8 8 8 9 10 11 12 13 13 12 11 11 11 11 12 13 13 14 14 15 15 15 15 14 13 13 12 10 9 9 8 8 8 8 9 9 9 9 10 10 11 12 13 14 15 16 16 17 18 18 18 15 12 8 6
17 20 23 25 23 20 17 15 14 13 11 9 8 9 8 7 7 7 6 6 6 6 6 6 6 6 6 6 5 5 4 5 7 9 11 12 13 13 12 11 10 10 11 11 12 12 13 13 13 13 13 12 11 11 9 8 7 6 6 5 5 6 6 7 7 8 9 9 10 10 12 13 15 16 17 17 17 18 18 17 15 12 9 6 5
15 17 19 22 23 22 20 18 16 14 13 12 11 11 11 10 10 12 12 11 11 11 11 10 9 8 7 7 7 6 5 4 3 5 5 6 7 8 8 8 9 10 10 11 11 11 11 11 11 11 10 9 8 7 6 6 5 5 4 5 5 5 6 6 7 8 8 9 10 11 13 14 15 16 17 17 17 17 15 14 12 10 8 6 5
15 16 17 19 21 21 20 19 18 16 14 12 12 12 12 11 12 13 12 10 10 11 11 11 10 9 9 9 8 6 5 3 2 2 2 2 3 5 6 7 8 8 8 9 9 9 9 9 8 8 8 7 7 7 6 5 5 5 5 5 5 5 6 6 7 8 9 10 11 12 13 14 15 15 15 15 14 13 12 11 10 9 8 7 7
12 13 15 17 19 19 19 18 18 17 15 13 13 13 14 12 11 11 11 11 10 10 9 9 8 7 7 7 6 4 3 3 3 2 3 4 4 4 5 5 6 6 7 7 7 8 8 8 8 8 8 7 7 6 6 5 5 4 4 4 5 6 7 8 9 10 11 11 11 11 11 12 12 12 12 11 11 10 10 9 8 6 6 6 6
15 15 13 13 14 16 17 18 17 17 17 16 15 15 15 15 13 12 11 11 10 8 7 6 5 3 3 4 3 3 3 3 3 4 4 5 6 5 5 6 6 6 7 7 7 7 8 8 9 8 8 7 7 6 6 5 5 5 5 6 7 8 8 9 9 10 9 9 9 9 9 9 9 9 8 8 8 8 7 7 7 7 6 6 7
18 18 17 14 12 11 12 14 15 15 15 16 15 15 15 15 16 15 14 12 10 8 7 6 5 4 2 2 2 2 3 4 5 5 5 6 7 7 7 8 8 8 8 7 7 7 8 8 8 8 8 8 7 7 7 6 6 6 7 7 8 8 8 8 7 6 6 6 7 7 6 6 5 5 6 7 8 8 7 7 7 7 7 7 8
18 16 15 15 14 12 10 9 10 11 12 13 14 14 13 13 15 16 15 13 12 11 10 9 8 7 5 4 3 4 4 5 5 6 6 6 6 6 7 8 9 9 9 7 7 8 9 8 8 8 8 8 8 7 7 7 7 7 7 7 6 6 5 5 5 4 4 5 5 5 5 5 6 7 7 8 8 8 8 8 8 8 8 9 9
17 15 13 11 11 11 10 9 8 7 8 9 10 11 12 12 12 14 14 13 13 13 11 10 9 7 6 6 5 5 5 5 5 5 5 5 5 5 5 6 7 7 8 8 7 8 9 9 8 8 8 8 8 8 7 7 7 6 5 4 3 3 4 5 5 6 6 7 7 7 7 7 7 7 7 8 9 9 10 10 10 10 10 10 10
16 15 12 9 9 9 9 8 7 6 5 6 7 7 8 8 9 11 11 12 13 13 12 11 10 8 7 6 6 5 5 5 4 4 4 4 4 4 4 4 5 5 6 7 7 8 8 8 8 8 7 7 7 6 7 6 5 2 2 3 4 5 7 8 9 10 9 9 8 7 7 6 6 6 7 8 10 10 11 11 10 10 10 10 11
15 15 11 8 8 9 7 6 6 6 5 5 6 5 5 5 6 7 8 9 10 11 12 12 11 10 9 8 7 7 5 4 4 4 4 4 3 3 3 3 3 4 5 6 6 7 7 7 6 6 5 5 5 5 4 1 2 5 7 7 8 8 9 10 10 9 8 7 6 5 5 6 6 7 7 8 9 11 11 11 10 10 10 10 10
13 13 11 9 9 10 8 6 6 6 5 4 4 4 3 3 4 4 6 7 8 9 10 11 11 11 10 8 7 7 6 5 4 3 3 2 2 2 2 2 2 3 3 4 4 4 4 4 4 3 3 3 2 2 4 6 9 10 10 9 9 9 9 8 8 7 7 5 5 5 6 6 7 8 8 8 9 10 11 10 10 10 9 9 9
11 12 11 9 10 11 10 9 8 8 6 5 4 3 3 2 2 2 4 6 7 8 9 10 10 10 9 8 7 6 6 5 5 4 3 2 2 2 2 2 2 3 3 3 4 4 4 4 4 4 5 6 7 8 10 11 11 10 9 9 8 7 7 6 6 6 5 5 5 5 6 7 8 9 9 8 8 9 10 10 10 9 9 9 10
9 10 10 9 8 9 9 9 10 11 10 9 7 5 2 1 1 0 2 4 6 7 9 9 9 8 9 9 9 8 7 7 6 4 2 1 1 2 3 4 4 4 5 5 5 6 6 8 9 10 10 11 11 12 11 11 10 9 8 7 6 6 6 6 6 5 5 4 4 5 6 7 8 8 9 8 8 8 9 10 10 9 9 10 11
6 7 9 8 8 7 7 7 9 12 13 13 11 8 4 1 1 1 1 3 5 6 7 8 7 7 8 9 10 10 9 8 6 3 1 1 2 3 4 5 6 6 6 6 7 8 10 11 12 13 13 13 12 11 10 9 9 8 7 7 7 6 6 6 6 5 5 4 4 5 5 6 7 7 8 8 8 8 8 9 9 9 10 10 11
5 5 6 6 6 7 7 7 8 10 12 13 13 10 7 4 2 1 1 1 3 5 6 6 6 7 8 9 10 11 9 7 3 1 2 2 3 4 5 5 6 6 7 8 9 10 11 12 13 13 13 12 11 10 9 9 9 9 9 8 8 7 7 6 5 5 5 4 3 4 4 5 6 7 7 8 9 9 9 9 9 9 10 10 10
5 5 6 5 6 6 7 7 6 7 9 11 12 11 9 6 3 2 2 1 2 3 5 5 6 7 8 9 11 12 10 5 2 2 4 4 5 5 5 5 6 6 7 8 9 9 9 11 12 13 13 12 10 9 9 9 9 9 9 8 7 7 6 5 5 5 5 4 4 5 6 6 6 6 7 9 10 10 9 8 8 8 9 9 9
5 5 6 6 6 6 7 8 7 6 7 9 11 11 10 7 4 3 2 1 2 3 4 5 6 8 9 10 11 12 10 6 3 4 5 5 6 5 5 5 5 6 6 7 7 7 8 10 12 13 13 11 10 9 9 9 9 8 7 7 6 6 6 5 5 5 5 6 6 7 7 8 7 7 8 9 10 10 9 8 7 7 7 7 8
6 6 6 7 7 7 6 6 6 5 6 7 10 11 10 7 3 3 2 1 2 3 4 5 6 8 9 9 10 11 11 7 5 4 4 5 5 4 4 5 5 5 6 6 7 8 9 10 12 13 12 10 9 8 8 8 7 7 6 6 6 6 6 6 6 6 6 6 6 7 8 8 8 8 8 9 10 9 9 8 6 6 6 7 9
6 7 8 8 8 7 5 4 3 4 6 7 9 11 10 6 3 4 3 1 2 3 4 6 7 7 8 8 8 9 10 9 7 4 3 4 4 3 3 4 4 5 5 6 8 9 10 11 12 12 11 9 8 7 6 6 5 5 5 5 5 5 6 6 5 5 5 5 5 6 7 8 8 8 8 9 9 9 9 8 6 6 7 7 8
7 8 9 10 9 8 6 3 2 3 6 7 8 10 11 8 3 4 3 2 3 3 5 8 8 5 4 5 6 7 8 9 9 7 4 3 3 3 3 3 4 5 5 6 8 10 11 11 11 10 8 7 6 5 5 4 4 4 4 4 4 5 5 5 5 5 4 4 4 5 5 6 7 7 8 9 9 9 9 9 7 7 7 8 7
7 8 9 10 10 9 8 5 3 3 5 7 7 8 10 8 4 3 4 4 5 5 7 9 7 3 2 3 4 5 6 8 8 9 7 4 3 3 2 2 3 4 5 6 8 10 11 11 10 9 7 7 6 4 3 3 3 3 4 4 4 4 4 4 4 4 4 4 4 5 6 7 7 8 9 9 10 10 9 9 8 8 8 8 7
7 8 8 8 8 9 9 7 5 4 5 7 8 7 8 7 5 4 5 6 6 6 7 6 4 2 2 3 4 3 4 6 7 9 9 7 5 3 3 2 2 3 5 6 8 9 10 10 9 8 7 6 5 4 3 3 3 4 4 4 4 3 3 3 2 3 4 4 5 5 6 7 8 10 10 11 11 11 11 10 10 10 9 9 9
8 8 8 9 8 8 8 9 8 7 6 7 7 7 7 6 5 5 6 7 7 6 6 5 4 3 4 4 3 3 4 5 6 7 8 8 8 6 4 3 2 3 4 5 6 7 8 8 7 6 5 5 5 5 5 4 4 4 3 3 2 2 2 2 3 3 4 5 6 7 8 10 11 12 12 12 12 11 11 12 11 11 10 10 9
8 8 8 9 9 9 9 9 10 9 8 7 7 8 7 7 6 6 6 7 7 6 5 5 6 6 5 4 3 3 3 4 5 5 6 8 8 7 5 4 3 2 4 4 5 6 6 6 6 6 6 6 6 5 5 4 3 2 1 1 0 1 2 3 4 5 6 7 8 9 11 12 12 11 10 9 9 9 9 9 8 8 9 9 8
9 9 9 10 11 12 12 12 13 13 12 10 9 9 8 8 7 7 7 8 8 6 4 6 7 7 6 5 5 4 2 2 3 4 5 6 8 7 6 4 3 2 2 4 5 5 6 7 7 6 6 6 5 4 3 2 1 1 1 2 3 3 4 5 5 6 7 8 9 11 11 11 9 8 8 7 7 8 8 7 6 6 5 4 5
10 11 11 11 12 12 13 13 13 13 14 13 11 10 10 9 8 8 7 7 7 6 6 6 6 5 5 5 7 7 5 4 4 4 4 5 7 7 7 5 3 2 1 2 3 5 5 5 6 5 5 4 3 2 2 2 2 3 3 4 5 6 6 7 7 7 8 9 10 10 9 8 7 7 7 7 7 7 7 7 6 4 2 1 1
Wind_Direction
256 263 258 250 242 238 243 240 222 215 215 213 206 201 201 203 204 206 205 205 205 208 216 219 214 210 206 205 204 203 202 203 204 204 204 205 209 212 211 210 214 215 213 212 213 211 210 210 211 211 214 218 218 218 214 208 209 211 216 216 210 210 222 215 201 181 173 173 181 199 214 217 215 215 213 213 219 230 240 246 247 240 233 233 236
246 256 255 253 248 242 243 235 217 211 215 213 206 201 200 202 205 208 207 206 205 208 216 219 217 216 211 204 204 203 202 202 203 204 203 204 208 210 209 210 213 214 212 213 214 213 210 208 208 209 212 216 218 214 208 205 203 200 204 208 206 212 226 236 242 238 220 205 192 198 215 223 222 225 224 220 220 230 244 254 256 250 245 243 243
247 244 250 254 252 246 241 228 213 210 212 211 207 203 202 203 205 206 206 205 204 208 215 216 214 214 210 204 204 204 201 201 202 203 203 204 208 208 207 209 212 214 215 215 215 214 209 204 205 208 210 214 217 214 206 204 202 200 204 209 212 218 227 240 252 255 249 239 226 219 222 226 234 236 227 222 221 226 239 253 257 251 246 246 247
263 257 255 255 253 247 242 232 219 216 212 208 208 207 205 205 202 201 204 204 204 207 209 209 207 206 206 205 204 201 198 198 199 201 202 203 204 205 204 205 208 212 216 216 215 212 207 202 202 206 211 215 217 216 214 212 205 202 208 215 219 225 233 244 253 258 260 253 243 244 241 230 235 239 221 215 220 223 225 231 238 239 240 245 249
265 260 256 254 252 247 244 239 230 224 216 209 209 209 206 202 199 199 202 203 205 206 202 203 203 201 201 202 200 195 193 195 196 197 198 197 197 197 196 196 195 197 207 213 214 214 211 206 204 205 212 217 219 218 214 211 204 200 205 213 221 234 243 250 254 257 258 254 249 251 247 231 229 234 224 213 219 225 225 231 236 239 245 250 254
264 256 253 251 249 247 245 242 240 235 225 215 212 210 204 199 197 199 203 204 203 203 203 203 199 197 197 197 195 191 186 186 186 185 186 185 186 187 187 186 183 185 201 209 212 213 211 208 204 204 211 218 218 211 202 198 199 199 204 212 223 239 249 251 253 253 248 243 245 249 250 243 232 228 229 225 230 238 244 249 251 255 260 263 266
286 266 256 252 250 249 246 244 242 238 229 219 213 208 202 198 197 200 206 206 202 202 205 202 196 195 196 193 190 187 183 180 180 181 183 184 187 190 189 187 184 189 202 206 211 215 213 209 205 202 203 206 202 196 192 197 200 201 209 218 223 232 240 236 236 237 233 230 234 239 243 246 238 234 239 241 243 249 254 259 262 266 270 272 274
320 303 283 270 262 255 250 246 241 236 229 220 212 205 201 198 196 201 206 204 202 204 203 198 195 195 193 189 187 187 184 181 181 185 187 189 193 193 189 185 181 186 198 202 209 218 215 211 211 204 193 184 183 187 190 197 202 203 208 213 216 220 223 221 224 229 229 228 232 239 240 238 234 238 246 250 254 260 263 266 270 274 278 280 281
338 329 310 293 285 272 257 246 241 237 228 219 211 205 202 200 198 203 206 202 200 203 199 196 195 190 187 187 188 188 187 184 185 189 189 189 191 189 186 183 180 186 197 199 200 207 208 208 210 200 180 165 171 183 185 191 200 206 206 204 208 214 213 219 229 233 232 232 235 241 242 240 240 245 253 261 270 276 277 275 276 281 285 285 283
346 342 329 307 298 292 275 256 246 240 226 216 212 206 203 202 201 204 207 202 197 196 193 190 188 185 185 188 189 189 188 187 188 192 192 190 189 189 189 187 187 193 198 199 199 198 194 191 186 177 164 160 168 176 182 187 185 188 193 193 197 203 204 211 221 227 234 239 240 241 243 246 250 252 257 263 270 275 277 277 279 282 284 284 282
343 344 340 328 311 297 290 278 262 248 229 216 212 208 204 200 198 203 208 205 196 190 189 185 182 182 185 188 190 190 190 189 190 195 198 195 191 193 196 194 193 197 197 194 191 182 174 168 161 157 158 164 169 172 177 181 176 176 184 186 188 192 197 204 212 220 230 238 243 247 249 251 253 253 256 259 260 264 268 270 274 276 279 281 280
343 341 340 337 327 308 296 288 273 259 238 218 210 208 202 198 197 200 206 205 195 187 188 186 181 182 184 186 188 189 190 191 191 195 201 200 198 198 201 199 194 193 195 192 184 173 166 164 162 163 167 171 173 176 179 178 179 183 187 190 195 201 205 212 217 220 225 232 240 245 247 248 253 256 259 260 259 262 265 266 269 272 275 277 277
346 339 335 336 334 325 309 289 276 274 250 223 212 205 200 198 198 198 202 205 195 186 188 188 183 183 185 186 188 187 187 190 190 191 197 202 202 201 201 199 193 189 191 191 187 181 177 179 180 178 179 181 182 186 192 194 193 191 194 198 203 212 220 227 232 232 233 239 245 249 249 250 256 262 263 264 265 268 273 275 276 278 281 281 282
351 342 332 332 334 330 320 288 265 272 256 226 211 203 198 197 196 196 201 202 194 186 189 189 185 185 187 187 188 185 185 189 190 189 193 194 194 194 195 194 192 190 189 187 187 187 188 192 194 193 191 190 191 195 203 211 210 207 210 211 210 214 223 230 238 244 250 258 265 270 270 267 266 268 269 271 274 276 278 280 280 282 283 284 286
4 359 345 338 334 328 322 284 238 244 247 228 209 200 197 194 193 197 199 196 190 188 190 191 190 189 189 189 189 186 185 188 188 188 192 191 188 188 190 193 195 196 195 194 194 193 194 197 198 198 198 197 202 209 212 218 222 221 222 223 219 222 230 237 248 256 262 268 271 275 278 278 277 278 280 283 285 286 287 287 288 288 289 289 290
16 16 6 356 349 336 325 288 231 221 223 217 205 197 195 192 194 199 194 188 188 190 190 192 193 191 190 191 191 189 186 186 187 188 192 196 194 192 191 191 195 197 197 198 199 199 199 200 201 203 205 205 210 213 208 206 215 218 216 221 230 243 262 274 281 281 279 279 279 281 283 284 285 286 288 289 290 290 291 291 292 292 293 294 295
23 25 24 19 12 359 336 291 229 210 206 205 199 196 196 192 193 196 190 185 189 189 186 190 191 189 191 192 192 191 187 185 188 190 193 197 198 196 195 195 197 198 197 197 198 198 198 198 200 204 205 206 208 207 199 197 207 217 222 235 252 266 279 289 295 296 292 289 287 286 285 286 287 288 289 290 291 291 291 291 291 291 292 294 295
26 26 31 32 28 20 6 327 219 202 196 194 194 195 195 190 187 190 187 185 187 185 181 184 186 185 187 189 188 189 186 182 185 190 192 195 197 197 200 204 205 203 200 199 198 199 200 199 198 200 201 203 201 199 204 217 229 238 245 254 264 271 277 283 289 292 291 289 287 286 286 287 288 289 290 291 291 290 290 289 289 288 289 290 292
28 26 33 40 43 42 39 36 39 189 187 181 178 182 187 185 183 184 183 182 184 183 179 181 182 181 182 184 184 185 183 178 179 183 185 187 191 197 203 207 209 204 199 196 191 188 191 194 195 197 199 202 202 204 217 231 238 245 250 254 260 267 274 281 286 287 286 284 282 281 281 283 285 287 287 288 288 289 290 291 291 292 291 292 292
30 30 37 45 53 57 58 58 58 67 121 160 161 163 170 173 171 175 178 179 181 181 178 178 178 176 177 179 179 179 178 175 172 174 178 178 182 192 197 201 204 199 188 183 181 178 183 196 206 216 216 210 211 217 224 230 236 243 249 253 259 266 272 276 278 280 281 280 279 278 278 280 281 281 281 283 285 288 291 295 298 299 299 298 297
32 35 39 45 56 64 65 65 68 70 71 81 116 139 152 159 162 174 187 185 179 176 175 176 175 172 172 174 175 175 174 173 172 172 177 181 185 194 197 198 204 206 197 192 202 223 243 247 261 274 267 246 235 235 237 239 241 246 250 255 260 264 268 271 273 275 277 279 280 281 281 279 277 276 278 281 285 289 295 301 305 310 313 313 310
36 39 43 45 53 66 72 73 76 80 77 70 73 93 119 137 147 158 171 174 170 162 157 158 159 156 157 161 164 166 167 170 173 173 177 185 193 204 214 221 227 233 237 233 234 244 254 259 267 271 265 257 252 252 255 256 258 259 261 264 265 267 270 272 273 275 276 278 280 279 274 271 272 274 278 281 285 291 297 302 308 316 325 329 326
43 44 48 50 50 57 71 84 89 92 91 85 77 81 91 104 117 128 139 150 157 152 143 145 146 144 149 155 158 162 167 172 178 181 184 191 200 211 225 236 240 242 241 236 234 237 241 247 251 250 247 249 253 258 264 267 269 271 272 272 272 272 273 274 274 273 272 272 275 273 270 273 277 281 285 289 294 301 307 314 321 328 334 335 331
55 51 50 52 54 52 56 71 89 98 102 106 109 107 107 108 107 104 107 124 139 140 139 149 157 159 163 163 160 165 171 173 181 191 196 203 212 220 224 227 227 226 222 219 220 224 228 233 237 239 243 250 255 259 263 265 267 268 269 270 272 271 270 268 265 264 265 268 273 277 281 285 289 293 298 304 311 318 323 327 331 333 334 331 327
63 59 54 52 52 51 51 56 64 75 91 109 125 127 132 145 144 136 130 119 112 110 112 118 125 133 142 143 144 156 168 177 192 206 210 212 216 220 221 220 218 219 221 224 228 231 234 238 241 245 249 251 253 254 256 256 257 259 260 263 263 260 259 258 259 265 272 278 283 288 293 298 303 308 313 317 321 324 324 323 325 325 323 318 316
66 63 59 55 52 51 52 54 58 64 71 83 100 110 117 130 131 123 118 111 103 104 110 111 111 116 122 123 128 145 169 190 205 210 211 213 212 212 213 215 217 222 227 230 234 236 238 239 241 242 244 244 245 245 243 241 242 245 246 248 250 254 259 264 270 277 281 286 292 297 301 307 311 314 316 317 318 318 316 315 315 312 307 307 313
69 67 63 59 55 53 52 52 56 62 69 74 84 93 97 102 104 99 93 92 95 98 100 99 97 98 101 101 100 105 112 123 160 186 197 209 214 213 212 214 219 226 230 232 233 233 232 231 229 229 229 227 223 222 220 217 219 226 234 242 250 258 265 271 277 283 290 296 300 303 306 308 310 310 311 312 313 313 312 311 308 298 287 289 299
66 71 70 65 61 57 55 54 54 57 64 72 80 86 89 96 103 101 95 92 91 91 92 92 88 82 81 82 83 86 90 89 93 133 167 196 204 200 200 202 206 212 217 218 217 214 212 211 207 204 205 205 203 203 204 208 216 227 237 246 257 268 278 288 294 298 301 302 302 303 305 306 307 309 311 313 315 315 313 310 303 288 276 277 281
49 61 70 72 67 60 58 58 57 57 62 69 75 81 84 88 94 101 105 104 99 92 89 87 82 76 74 74 70 62 57 56 67 100 143 170 176 173 174 176 179 183 190 194 196 194 190 189 189 189 194 199 203 207 212 222 235 248 260 274 287 294 298 301 301 302 303 303 304 306 310 312 315 317 319 321 322 322 321 323 321 311 301 300 302
37 40 50 63 68 63 59 58 57 57 59 62 66 72 78 81 83 87 96 102 105 107 106 99 89 66 42 34 29 21 27 57 87 114 137 150 154 156 158 161 165 172 176 179 186 188 187 186 187 189 196 206 214 221 229 238 249 261 273 283 290 295 299 302 305 308 310 313 317 321 326 329 330 331 334 338 342 346 349 352 354 350 340 332 327
36 32 31 35 42 50 55 57 55 54 55 56 57 61 68 76 79 78 78 80 86 94 101 105 108 106 77 31 31 45 70 92 108 120 127 132 141 153 159 161 165 172 176 178 186 194 197 200 203 204 210 219 226 232 239 245 253 264 277 288 296 304 311 317 324 330 331 332 337 341 345 352 358 7 15 17 15 17 17 12 3 354 345 338 332
33 28 24 20 20 24 37 51 57 58 56 53 51 51 56 65 74 76 74 69 67 68 72 77 86 96 104 104 98 103 111 112 111 111 111 117 134 150 161 168 173 177 181 186 197 206 208 211 216 218 222 229 236 241 247 254 266 280 293 305 316 328 342 355 6 10 7 7 16 28 39 45 46 43 41 37 31 26 21 14 4 357 352 348 342
24 22 21 18 14 15 20 31 47 63 68 62 56 52 50 54 62 69 71 68 65 62 62 64 68 75 87 93 90 93 100 102 101 103 107 117 133 146 163 178 186 192 195 200 210 216 217 221 226 230 234 240 245 250 259 272 287 303 318 338 4 27 40 49 56 64 70 73 74 75 70 62 56 49 42 36 30 22 17 12 4 358 358 359 360
15 14 17 18 12 6 10 18 30 49 68 70 65 59 55 55 59 60 60 62 63 62 60 60 60 60 67 75 77 78 81 84 90 102 115 128 141 155 171 186 201 212 215 220 226 228 229 233 236 237 241 248 256 267 279 291 308 340 54 83 86 81 79 82 86 88 89 87 84 79 71 60 52 44 38 32 27 22 19 17 13 10 12 17 21
13 13 17 21 14 6 5 13 26 37 47 55 62 67 66 65 64 60 55 54 57 59 59 58 57 54 54 59 64 65 68 74 84 95 112 127 144 164 174 182 201 215 219 224 228 228 231 237 240 244 252 261 268 273 278 281 106 110 109 105 99 96 96 98 98 95 91 86 80 68 56 46 41 38 36 32 28 26 26 27 26 27 28 27 27
18 20 23 27 25 24 25 29 35 43 50 55 64 84 97 88 75 70 68 66 64 61 59 57 53 48 46 48 52 52 50 51 57 67 85 108 134 162 174 178 194 208 212 213 213 216 224 228 226 232 236 229 210 169 128 116 114 114 111 107 106 109 113 114 110 102 90 76 61 49 45 45 45 44 42 37 31 30 31 30 30 31 29 26 22
22 26 28 29 29 33 41 47 47 49 57 62 67 84 110 120 111 85 76 75 70 60 53 50 48 42 36 36 37 37 36 35 30 31 45 72 110 137 150 157 167 188 199 192 182 184 186 173 155 143 135 128 122 116 112 111 112 113 113 113 116 121 122 119 109 98 83 66 57 55 55 55 53 49 48 46 42 37 33 29 27 26 21 17 14
18 27 31 33 30 32 39 44 41 40 42 43 45 52 71 120 184 120 78 75 67 55 48 45 41 32 23 21 19 17 19 20 14 12 25 53 84 110 129 142 152 168 178 171 160 155 146 132 119 113 112 111 109 108 108 110 113 114 114 114 113 111 107 99 91 84 77 72 75 74 66 60 55 48 45 45 43 40 35 30 27 26 22 16 11
10 21 32 39 35 29 30 33 33 34 35 34 31 30 28 7 279 271 69 75 67 58 53 47 40 30 21 18 16 13 13 13 8 3 30 72 89 111 125 133 142 152 155 149 142 136 127 118 112 111 111 111 111 112 113 113 114 112 107 99 92 87 84 80 77 77 80 86 92 83 67 57 50 39 32 34 37 37 33 27 22 20 18 14 8
357 358 16 32 32 21 17 21 26 29 30 29 26 19 9 1 329 278 292 56 63 61 58 50 41 35 28 24 21 19 15 11 13 62 125 111 106 113 118 121 129 136 137 134 133 130 125 120 117 116 116 116 117 118 118 117 114 108 100 93 86 80 78 75 73 76 78 79 77 61 41 35 32 25 21 25 31 30 25 19 16 13 11 8 360
336 332 342 358 5 5 2 359 2 11 15 18 18 11 358 346 322 274 271 343 51 63 61 52 43 35 27 22 24 25 22 22 58 118 121 108 96 93 98 105 113 120 128 136 138 134 132 132 129 127 126 125 125 123 120 117 114 108 101 94 88 83 80 75 69 65 60 49 34 22 17 14 12 11 12 12 13 13 9 4 1 1 3 3 358
313 312 319 327 334 344 351 348 341 343 353 3 8 3 349 334 310 273 269 304 46 58 49 36 29 23 15 15 23 26 25 35 79 105 103 96 86 80 83 93 107 119 130 141 145 145 148 149 144 139 136 134 130 126 122 120 118 114 106 96 89 85 82 76 67 55 46 39 28 19 17 14 6 3 5 1 357 358 358 355 354 356 1 5 4
305 307 306 309 314 323 340 347 339 329 333 349 0 358 346 327 293 263 266 302 28 35 23 12 10 9 7 13 25 27 27 37 67 90 89 85 82 82 86 95 108 123 132 141 147 150 154 154 150 146 146 144 137 127 122 120 116 109 98 88 83 80 76 72 61 47 38 33 26 22 23 21 13 7 3 358 354 352 348 346 350 355 354 357 2
296 307 309 311 315 318 328 350 353 328 320 336 355 359 354 337 285 248 251 297 358 16 10 357 350 354 4 15 26 30 31 37 51 70 91 98 95 96 107 112 117 126 137 145 147 145 143 144 146 147 149 147 138 127 121 117 109 97 84 75 72 72 70 64 52 40 31 25 22 22 22 18 14 8 360 353 352 350 343 337 336 338 339 346 355
296 303 308 311 313 312 312 324 346 323 311 323 347 2 4 357 312 245 249 288 313 340 353 343 333 335 4 15 15 22 32 39 44 52 72 103 110 106 116 129 133 138 142 143 141 138 135 135 137 141 143 143 137 131 127 116 100 88 77 65 60 63 62 54 43 36 29 22 18 16 10 2 358 351 341 334 335 336 335 329 320 316 322 334 347
309 306 308 311 312 309 303 300 302 304 306 315 334 356 5 2 337 255 250 278 298 318 331 329 320 319 8 0 346 2 28 37 38 40 52 74 95 103 112 124 137 146 145 139 137 136 135 135 138 142 147 149 146 140 132 114 91 76 68 64 60 59 55 47 38 30 22 14 8 2 353 346 341 334 327 322 319 319 320 317 309 302 304 312 322
313 314 316 319 316 307 297 291 291 291 294 303 319 339 351 350 335 300 280 284 296 310 319 314 293 275 304 311 305 331 13 27 28 31 41 54 64 72 88 105 126 148 150 147 146 145 143 145 151 154 155 154 149 140 125 109 93 83 78 74 69 61 48 36 23 8 357 351 348 343 335 330 326 320 314 310 306 303 301 299 295 291 289 293 303
307 309 313 319 317 307 295 290 291 290 285 287 299 316 328 330 326 316 305 297 292 297 303 293 259 256 293 302 289 302 343 7 20 28 39 49 52 53 60 78 111 149 157 157 161 160 158 160 163 159 150 143 139 133 127 118 107 102 98 90 77 53 12 346 338 335 329 325 324 322 319 319 318 315 311 306 302 298 295 292 289 284 279 279 288
315 311 313 318 317 311 302 292 286 285 283 280 281 288 300 309 313 310 305 299 293 290 283 255 237 249 287 300 274 272 325 2 17 25 34 41 44 46 49 55 74 125 148 152 158 162 162 161 157 151 143 138 134 131 129 126 122 122 120 104 352 316 316 315 312 314 314 313 314 314 315 318 320 318 316 315 313 310 309 308 304 296 283 274 275
324 316 315 318 317 313 308 300 290 280 273 271 273 275 278 286 298 303 301 296 293 286 258 230 234 251 277 285 269 259 288 356 3 4 11 19 26 34 41 46 51 79 131 147 151 153 155 154 152 147 145 144 142 142 145 149 164 233 280 297 297 297 301 300 299 302 305 307 308 312 316 321 323 323 325 329 329 327 328 328 325 319 304 278 262
331 319 316 321 327 325 318 310 301 286 272 265 265 265 266 270 280 288 291 291 286 272 246 232 241 259 270 274 276 278 279 287 306 321 333 347 2 16 28 38 50 58 88 171 171 168 168 167 165 163 164 168 170 181 203 237 264 276 286 294 297 296 297 295 295 298 300 302 305 311 318 323 326 328 334 339 337 334 334 334 333 340 353 1 223
Height
1495 1496 1497 1498 1497 1497 1497 1498 1499 1501 1503 1504 1505 1507 1508 1510 1512 1514 1515 1516 1517 1518 1520 1521 1522 1523 1524 1525 1525 1526 1528 1529 1530 1531 1533 1534 1535 1537 1538 1539 1540 1541 1542 1543 1544 1545 1547 1548 1549 1550 1551 1552 1553 1555 1556 1558 1559 1560 1561 1563 1564 1566 1567 1567 1568 1569 1569 1570 1570 1570 1571 1572 1572 1573 1574 1574 1575 1576 1577 1577 1578 1578 1578 1579 1579
1492 1492 1494 1495 1495 1496 1496 1497 1498 1500 1502 1504 1505 1505 1506 1509 1511 1513 1514 1515 1516 1517 1519 1520 1522 1523 1523 1524 1525 1526 1527 1528 1529 1530 1532 1533 1534 1536 1537 1538 1539 1540 1541 1543 1544 1545 1546 1547 1549 1550 1551 1552 1553 1554 1556 1557 1559 1560 1561 1563 1564 1566 1567 1567 1568 1569 1569 1570 1570 1570 1571 1571 1572 1572 1573 1574 1575 1576 1576 1577 1578 1578 1578 1578 1578
1490 1490 1491 1493 1494 1494 1495 1495 1496 1498 1499 1501 1503 1504 1504 1506 1509 1512 1513 1514 1515 1516 1518 1519 1521 1522 1523 1524 1525 1525 1526 1527 1528 1530 1531 1532 1533 1535 1536 1537 1538 1540 1541 1542 1544 1545 1546 1547 1548 1549 1550 1551 1552 1553 1555 1556 1558 1560 1561 1563 1564 1565 1566 1567 1567 1568 1569 1570 1570 1570 1570 1571 1572 1572 1573 1574 1574 1575 1576 1577 1577 1577 1577 1577 1577
1491 1491 1491 1492 1493 1493 1494 1494 1495 1495 1496 1498 1500 1502 1504 1505 1507 1510 1512 1513 1514 1515 1517 1518 1520 1521 1522 1523 1524 1524 1525 1526 1528 1529 1530 1531 1532 1534 1535 1536 1538 1539 1541 1542 1543 1544 1545 1547 1548 1549 1550 1550 1552 1553 1555 1556 1557 1559 1560 1562 1563 1564 1565 1566 1566 1567 1568 1569 1569 1569 1570 1570 1571 1572 1572 1573 1573 1574 1575 1576 1576 1576 1576 1576 1576
1491 1491 1491 1492 1492 1492 1492 1493 1494 1494 1495 1497 1499 1501 1502 1504 1506 1508 1510 1512 1514 1515 1516 1517 1518 1519 1521 1522 1523 1524 1525 1526 1527 1528 1529 1531 1532 1533 1534 1536 1537 1539 1540 1542 1543 1544 1546 1547 1548 1549 1550 1550 1552 1553 1554 1556 1557 1558 1559 1561 1562 1563 1564 1564 1565 1565 1567 1568 1569 1569 1569 1570 1570 1571 1571 1572 1573 1573 1574 1574 1575 1575 1575 1575 1575
1490 1489 1489 1490 1490 1490 1490 1491 1492 1494 1495 1497 1498 1500 1501 1503 1505 1507 1509 1511 1513 1514 1515 1515 1516 1518 1519 1520 1522 1523 1524 1525 1526 1528 1529 1530 1531 1533 1534 1536 1537 1539 1540 1541 1542 1544 1545 1546 1547 1549 1550 1551 1552 1553 1554 1555 1556 1557 1558 1560 1561 1562 1563 1563 1563 1564 1565 1567 1568 1569 1569 1569 1569 1570 1571 1571 1572 1572 1573 1573 1574 1574 1574 1574 1574
1488 1488 1488 1488 1489 1489 1489 1489 1490 1491 1492 1494 1496 1498 1500 1502 1503 1506 1508 1510 1511 1512 1513 1514 1515 1516 1517 1519 1521 1523 1524 1525 1526 1527 1529 1530 1531 1532 1534 1535 1537 1538 1539 1540 1541 1542 1543 1544 1545 1547 1549 1550 1552 1553 1554 1555 1556 1557 1558 1559 1560 1561 1562 1562 1563 1563 1564 1566 1567 1568 1568 1568 1568 1569 1570 1570 1571 1571 1571 1572 1572 1573 1573 1573 1573
1487 1487 1487 1487 1487 1487 1486 1486 1486 1488 1490 1491 1492 1495 1497 1498 1500 1503 1506 1508 1510 1511 1512 1513 1513 1514 1515 1517 1520 1523 1524 1525 1526 1527 1528 1529 1531 1532 1533 1535 1536 1537 1538 1539 1540 1541 1543 1544 1545 1547 1549 1550 1552 1554 1554 1555 1556 1557 1558 1558 1559 1560 1561 1561 1562 1563 1564 1565 1566 1567 1567 1567 1568 1568 1568 1569 1569 1570 1570 1570 1570 1571 1572 1572 1572
1487 1486 1486 1485 1485 1484 1484 1484 1484 1486 1489 1489 1490 1492 1495 1496 1497 1500 1503 1506 1508 1509 1511 1512 1512 1512 1514 1516 1519 1521 1523 1524 1526 1527 1528 1529 1530 1531 1533 1534 1536 1536 1537 1538 1539 1540 1542 1543 1545 1547 1549 1551 1553 1554 1554 1555 1556 1556 1557 1558 1559 1559 1560 1561 1561 1562 1564 1565 1566 1566 1566 1566 1567 1567 1567 1568 1568 1568 1569 1569 1569 1570 1570 1570 1570
1486 1485 1484 1484 1483 1483 1482 1482 1483 1484 1487 1488 1488 1490 1493 1494 1495 1499 1502 1505 1507 1508 1510 1511 1511 1512 1513 1515 1518 1520 1522 1524 1525 1526 1527 1528 1529 1531 1532 1534 1535 1536 1536 1537 1538 1539 1541 1543 1544 1546 1549 1551 1552 1553 1554 1555 1555 1556 1556 1557 1558 1559 1560 1561 1562 1562 1563 1564 1565 1565 1565 1566 1566 1566 1567 1567 1568 1568 1568 1568 1567 1568 1568 1567 1567
1485 1484 1483 1482 1481 1481 1481 1481 1481 1482 1484 1485 1486 1488 1491 1493 1494 1497 1501 1504 1506 1507 1509 1510 1511 1511 1513 1515 1517 1520 1522 1523 1524 1525 1527 1528 1529 1530 1532 1533 1534 1536 1536 1537 1538 1539 1541 1543 1544 1546 1548 1550 1551 1552 1553 1554 1555 1555 1556 1557 1557 1559 1560 1561 1562 1562 1563 1563 1563 1564 1564 1565 1565 1565 1565 1566 1566 1566 1566 1566 1565 1565 1565 1565 1564
1484 1483 1482 1480 1480 1479 1479 1479 1479 1479 1480 1482 1484 1486 1489 1492 1493 1495 1499 1501 1504 1506 1508 1509 1510 1511 1513 1515 1517 1519 1521 1522 1524 1525 1526 1527 1528 1530 1531 1533 1534 1535 1536 1537 1538 1540 1541 1543 1544 1546 1548 1549 1550 1551 1552 1553 1554 1555 1556 1556 1557 1558 1559 1560 1561 1562 1562 1563 1563 1563 1563 1563 1563 1563 1563 1563 1563 1564 1564 1564 1564 1563 1563 1563 1562
1484 1483 1481 1480 1479 1478 1478 1478 1478 1477 1478 1479 1481 1484 1487 1490 1492 1494 1497 1500 1502 1505 1507 1508 1510 1511 1512 1515 1517 1518 1520 1521 1523 1524 1525 1526 1528 1529 1531 1532 1534 1535 1536 1537 1539 1540 1541 1543 1544 1546 1547 1548 1550 1551 1552 1553 1554 1555 1555 1556 1557 1558 1559 1560 1560 1561 1561 1562 1562 1562 1563 1563 1562 1562 1562 1562 1562 1562 1562 1562 1562 1561 1560 1560 1560
1485 1483 1481 1480 1478 1477 1477 1476 1476 1477 1477 1477 1479 1482 1485 1488 1490 1492 1495 1498 1500 1503 1506 1507 1509 1510 1512 1514 1516 1518 1519 1521 1523 1524 1525 1526 1527 1529 1531 1532 1534 1535 1536 1538 1539 1540 1542 1543 1544 1546 1547 1548 1549 1550 1551 1552 1553 1554 1555 1556 1556 1557 1558 1559 1560 1560 1561 1561 1561 1561 1561 1561 1561 1561 1560 1560 1560 1560 1561 1560 1560 1559 1558 1558 1557
1487 1485 1482 1481 1479 1478 1477 1476 1476 1476 1476 1476 1478 1481 1484 1487 1489 1491 1494 1496 1499 1502 1504 1506 1507 1509 1511 1513 1515 1517 1518 1520 1522 1524 1525 1526 1527 1528 1530 1531 1533 1535 1536 1537 1539 1540 1542 1543 1544 1545 1546 1548 1549 1549 1550 1551 1552 1553 1554 1555 1556 1557 1558 1558 1559 1559 1560 1560 1559 1559 1559 1559 1559 1559 1559 1559 1558 1558 1558 1558 1557 1557 1555 1555 1555
1489 1486 1484 1482 1480 1479 1478 1478 1477 1477 1477 1477 1478 1480 1483 1485 1488 1490 1492 1495 1497 1500 1503 1505 1507 1508 1510 1512 1514 1516 1517 1519 1521 1523 1524 1526 1527 1528 1529 1531 1533 1534 1535 1537 1538 1540 1541 1543 1544 1545 1546 1547 1548 1549 1550 1551 1552 1552 1553 1554 1555 1556 1556 1557 1558 1558 1558 1558 1558 1558 1558 1558 1558 1557 1557 1557 1557 1556 1556 1555 1555 1554 1553 1552 1552
1492 1490 1487 1485 1482 1481 1480 1480 1479 1478 1478 1478 1478 1480 1482 1484 1487 1490 1492 1493 1496 1498 1500 1503 1506 1507 1509 1511 1513 1515 1517 1518 1520 1522 1523 1525 1526 1527 1529 1531 1533 1534 1535 1537 1538 1539 1540 1542 1543 1544 1545 1546 1547 1548 1549 1550 1551 1552 1552 1553 1554 1555 1555 1556 1556 1556 1556 1556 1556 1556 1556 1556 1556 1555 1555 1554 1554 1554 1553 1553 1553 1552 1551 1550 1550
1496 1494 1492 1489 1486 1484 1483 1482 1481 1480 1480 1479 1479 1480 1482 1484 1487 1490 1491 1493 1496 1498 1499 1502 1505 1507 1509 1511 1513 1514 1516 1518 1519 1521 1523 1524 1525 1527 1529 1531 1532 1534 1535 1536 1537 1539 1540 1541 1542 1543 1545 1546 1546 1547 1548 1549 1549 1550 1551 1552 1553 1554 1554 1555 1555 1555 1555 1554 1554 1554 1554 1554 1554 1553 1553 1552 1552 1551 1551 1550 1550 1549 1549 1548 1547
1500 1498 1497 1495 1492 1489 1487 1486 1485 1483 1482 1482 1481 1480 1482 1485 1488 1490 1491 1493 1497 1499 1500 1502 1504 1506 1509 1511 1512 1514 1515 1517 1519 1521 1522 1524 1525 1527 1528 1530 1531 1533 1534 1535 1536 1537 1539 1540 1541 1542 1544 1545 1546 1546 1547 1548 1548 1549 1550 1551 1551 1552 1553 1553 1553 1553 1553 1553 1553 1552 1552 1552 1552 1551 1551 1550 1549 1548 1548 1547 1547 1546 1546 1545 1545
1503 1502 1501 1499 1497 1494 1492 1490 1489 1488 1487 1486 1485 1483 1484 1488 1490 1493 1494 1496 1498 1501 1502 1502 1504 1506 1509 1511 1512 1514 1515 1517 1519 1521 1522 1524 1525 1527 1528 1529 1530 1532 1533 1533 1535 1536 1538 1539 1541 1542 1544 1545 1545 1546 1546 1547 1548 1548 1549 1549 1550 1550 1551 1551 1551 1551 1551 1550 1550 1550 1551 1550 1550 1549 1548 1548 1547 1546 1546 1545 1544 1544 1543 1543 1542
1507 1505 1504 1502 1501 1499 1497 1495 1493 1492 1491 1492 1491 1489 1489 1491 1492 1494 1497 1498 1500 1502 1503 1503 1504 1506 1508 1510 1512 1513 1515 1516 1518 1520 1522 1523 1525 1527 1528 1529 1530 1532 1533 1534 1535 1536 1537 1539 1540 1541 1543 1544 1544 1545 1545 1546 1547 1547 1548 1548 1548 1548 1548 1548 1548 1548 1548 1547 1547 1547 1548 1548 1547 1547 1546 1546 1545 1544 1544 1543 1542 1542 1541 1540 1540
1511 1508 1506 1505 1504 1502 1501 1500 1498 1496 1496 1497 1498 1496 1496 1496 1496 1497 1498 1499 1502 1504 1505 1504 1505 1506 1508 1510 1512 1513 1515 1516 1518 1519 1520 1522 1524 1525 1527 1528 1529 1531 1532 1534 1535 1535 1536 1537 1539 1540 1541 1542 1543 1543 1544 1545 1545 1546 1546 1547 1546 1546 1546 1545 1545 1545 1544 1544 1544 1544 1545 1545 1545 1545 1544 1544 1543 1542 1542 1541 1540 1540 1539 1538 1538
1514 1511 1509 1507 1506 1505 1504 1503 1502 1501 1500 1501 1501 1501 1501 1502 1502 1501 1501 1501 1504 1507 1507 1508 1508 1509 1510 1512 1513 1514 1515 1516 1517 1518 1519 1521 1523 1524 1526 1527 1529 1530 1531 1533 1534 1534 1535 1536 1537 1538 1539 1540 1541 1541 1542 1542 1543 1543 1544 1544 1544 1543 1543 1543 1543 1542 1542 1542 1542 1542 1543 1543 1542 1542 1542 1541 1541 1540 1540 1539 1539 1538 1537 1537 1536
1516 1514 1512 1510 1508 1507 1507 1506 1505 1504 1503 1503 1503 1503 1503 1504 1504 1505 1505 1505 1506 1508 1509 1509 1510 1511 1512 1514 1514 1515 1516 1516 1517 1518 1519 1521 1522 1524 1525 1527 1529 1530 1531 1532 1533 1534 1535 1535 1536 1537 1538 1538 1539 1539 1540 1540 1541 1541 1541 1541 1541 1541 1541 1541 1541 1541 1541 1540 1540 1540 1540 1540 1540 1540 1540 1539 1539 1538 1538 1537 1537 1536 1536 1535 1535
1518 1517 1515 1513 1511 1510 1509 1508 1507 1507 1506 1506 1505 1504 1505 1505 1506 1507 1508 1508 1509 1510 1511 1511 1512 1513 1514 1514 1514 1515 1516 1516 1517 1518 1519 1521 1522 1524 1525 1527 1528 1530 1530 1531 1532 1533 1534 1534 1535 1535 1536 1537 1537 1538 1538 1538 1539 1539 1540 1540 1540 1541 1541 1541 1541 1540 1540 1539 1539 1539 1539 1539 1538 1538 1538 1537 1537 1536 1536 1535 1535 1534 1534 1533 1533
1521 1520 1518 1517 1515 1514 1513 1511 1510 1510 1509 1509 1508 1507 1507 1507 1508 1509 1509 1510 1511 1512 1513 1513 1514 1515 1515 1515 1515 1516 1516 1517 1518 1519 1520 1521 1523 1524 1525 1526 1527 1529 1529 1530 1531 1532 1532 1533 1534 1534 1535 1535 1536 1536 1537 1537 1538 1538 1539 1539 1540 1540 1540 1540 1540 1539 1539 1539 1538 1538 1538 1537 1537 1536 1536 1536 1535 1535 1534 1534 1533 1533 1532 1532 1531
1523 1522 1521 1520 1519 1518 1516 1515 1514 1513 1512 1512 1511 1511 1511 1511 1511 1511 1512 1513 1513 1514 1514 1515 1516 1516 1517 1517 1517 1517 1518 1520 1521 1521 1521 1523 1524 1525 1525 1526 1527 1528 1528 1529 1530 1530 1531 1532 1533 1533 1534 1535 1535 1536 1536 1537 1537 1538 1538 1539 1539 1540 1539 1539 1539 1539 1538 1538 1537 1537 1536 1536 1535 1535 1535 1534 1534 1533 1533 1532 1532 1531 1531 1531 1530
1526 1524 1523 1523 1522 1521 1520 1519 1518 1517 1516 1516 1515 1514 1514 1514 1514 1514 1514 1515 1515 1516 1516 1517 1518 1518 1519 1519 1519 1520 1521 1522 1522 1522 1523 1524 1525 1526 1526 1527 1527 1527 1527 1528 1529 1529 1530 1531 1532 1533 1534 1534 1535 1535 1536 1536 1537 1537 1538 1538 1539 1539 1539 1538 1538 1538 1537 1537 1536 1536 1535 1535 1534 1533 1533 1532 1532 1531 1531 1531 1530 1530 1530 1529 1529
1528 1527 1526 1525 1524 1524 1523 1523 1522 1521 1520 1520 1519 1517 1517 1517 1517 1516 1517 1517 1517 1518 1518 1519 1520 1521 1521 1521 1521 1522 1523 1523 1523 1523 1524 1525 1525 1526 1526 1526 1527 1527 1527 1528 1529 1529 1530 1531 1532 1533 1534 1534 1535 1535 1535 1536 1536 1537 1537 1537 1537 1537 1537 1537 1537 1536 1536 1536 1535 1534 1534 1533 1533 1532 1531 1531 1530 1530 1529 1529 1529 1528 1528 1528 1528
1531 1530 1529 1528 1527 1527 1526 1525 1525 1525 1524 1523 1522 1520 1519 1519 1519 1519 1519 1519 1519 1520 1520 1521 1521 1522 1522 1522 1523 1523 1523 1523 1524 1524 1524 1525 1525 1526 1526 1527 1527 1527 1528 1528 1529 1530 1531 1532 1532 1533 1534 1534 1535 1535 1535 1535 1535 1536 1536 1536 1536 1536 1536 1536 1535 1535 1534 1534 1534 1533 1532 1532 1531 1531 1530 1530 1529 1529 1528 1528 1528 1527 1527 1527 1527
1532 1532 1531 1530 1530 1529 1529 1528 1528 1527 1527 1526 1525 1523 1522 1522 1522 1522 1521 1521 1522 1522 1522 1522 1522 1523 1523 1523 1523 1524 1524 1524 1524 1524 1525 1525 1526 1526 1526 1527 1528 1528 1529 1529 1530 1531 1531 1532 1533 1533 1534 1534 1534 1534 1534 1534 1535 1535 1535 1535 1535 1534 1534 1534 1533 1533 1533 1533 1532 1532 1531 1531 1531 1530 1530 1529 1529 1528 1528 1528 1528 1527 1527 1527 1526
1534 1533 1533 1532 1532 1531 1531 1530 1530 1530 1529 1528 1527 1526 1525 1525 1524 1524 1524 1523 1524 1524 1524 1524 1524 1524 1524 1524 1524 1524 1524 1524 1524 1525 1525 1525 1526 1526 1527 1527 1528 1529 1529 1530 1531 1532 1532 1533 1533 1533 1534 1534 1534 1533 1533 1534 1534 1534 1534 1533 1533 1533 1532 1532 1532 1532 1532 1532 1532 1531 1531 1531 1530 1530 1530 1529 1529 1529 1529 1528 1528 1527 1527 1526 1526
1536 1535 1534 1534 1533 1533 1532 1532 1532 1531 1531 1530 1530 1529 1528 1527 1527 1526 1525 1525 1525 1525 1525 1525 1525 1525 1525 1525 1524 1524 1524 1524 1524 1525 1525 1525 1526 1527 1527 1528 1528 1529 1530 1530 1531 1532 1532 1532 1533 1533 1533 1533 1533 1533 1532 1532 1533 1533 1532 1532 1532 1531 1531 1531 1531 1532 1532 1532 1532 1531 1531 1531 1531 1531 1530 1530 1530 1529 1529 1529 1528 1527 1527 1526 1526
1537 1537 1536 1535 1535 1534 1533 1533 1533 1532 1532 1531 1531 1531 1530 1530 1529 1528 1528 1528 1527 1527 1527 1527 1527 1527 1526 1526 1526 1525 1525 1525 1525 1525 1525 1525 1526 1527 1527 1528 1528 1529 1530 1530 1531 1531 1531 1532 1532 1532 1532 1532 1532 1531 1531 1531 1531 1532 1532 1531 1531 1531 1531 1531 1531 1531 1532 1532 1532 1532 1532 1532 1532 1531 1531 1531 1530 1530 1529 1529 1528 1528 1527 1527 1526
1539 1538 1537 1536 1536 1535 1534 1534 1534 1533 1533 1532 1532 1532 1531 1531 1531 1530 1530 1530 1529 1529 1529 1529 1528 1528 1528 1527 1527 1526 1526 1526 1526 1525 1526 1526 1526 1527 1527 1528 1528 1529 1529 1530 1530 1530 1530 1531 1531 1531 1531 1531 1530 1530 1530 1530 1531 1531 1531 1531 1531 1531 1531 1531 1532 1532 1532 1533 1533 1533 1533 1533 1532 1532 1532 1531 1531 1531 1530 1529 1529 1528 1528 1527 1527
1541 1540 1539 1538 1537 1536 1536 1535 1535 1535 1534 1533 1533 1533 1532 1532 1532 1532 1531 1531 1531 1531 1531 1530 1530 1529 1529 1528 1528 1528 1527 1527 1527 1527 1527 1527 1527 1527 1527 1527 1528 1528 1529 1529 1529 1530 1530 1530 1530 1530 1530 1530 1530 1530 1530 1530 1530 1530 1531 1531 1531 1531 1532 1532 1533 1533 1533 1533 1533 1533 1533 1533 1533 1533 1532 1532 1531 1531 1530 1530 1529 1529 1529 1528 1528
1542 1541 1540 1539 1539 1538 1537 1537 1536 1536 1535 1535 1534 1534 1533 1533 1533 1533 1533 1533 1533 1532 1532 1532 1531 1531 1530 1530 1529 1529 1529 1528 1528 1528 1528 1528 1528 1527 1527 1527 1528 1528 1529 1529 1529 1529 1530 1530 1530 1530 1530 1530 1529 1529 1530 1530 1530 1531 1531 1532 1532 1533 1533 1533 1534 1534 1534 1534 1534 1534 1534 1534 1534 1533 1533 1532 1532 1531 1531 1531 1530 1530 1530 1529 1529
1543 1542 1541 1541 1540 1540 1539 1539 1538 1538 1537 1536 1536 1535 1534 1534 1534 1534 1534 1534 1534 1533 1533 1532 1532 1531 1531 1530 1530 1529 1529 1529 1528 1528 1528 1528 1528 1527 1527 1527 1528 1528 1529 1529 1530 1530 1530 1530 1530 1530 1530 1530 1530 1530 1531 1531 1532 1532 1533 1533 1534 1534 1534 1534 1534 1534 1534 1535 1535 1535 1535 1534 1534 1533 1533 1532 1532 1532 1532 1532 1531 1531 1531 1530 1530
1544 1543 1542 1542 1541 1541 1540 1540 1539 1539 1538 1537 1536 1536 1535 1535 1534 1534 1534 1534 1534 1534 1533 1533 1532 1532 1531 1531 1530 1529 1529 1529 1528 1528 1528 1528 1528 1528 1528 1528 1528 1528 1529 1529 1530 1530 1530 1530 1530 1530 1531 1531 1531 1532 1532 1533 1533 1534 1534 1534 1535 1535 1535 1535 1535 1535 1535 1535 1535 1535 1535 1534 1534 1533 1533 1533 1533 1532 1532 1532 1532 1531 1531 1531 1530
1545 1544 1543 1543 1542 1542 1541 1540 1540 1540 1539 1538 1537 1537 1536 1535 1535 1535 1535 1535 1534 1534 1533 1533 1532 1532 1532 1531 1530 1529 1529 1528 1528 1528 1528 1528 1528 1528 1528 1528 1528 1529 1529 1529 1529 1530 1530 1530 1531 1531 1532 1532 1533 1533 1533 1534 1534 1535 1535 1535 1536 1536 1536 1536 1536 1536 1536 1535 1535 1535 1534 1534 1533 1533 1533 1533 1533 1533 1533 1532 1532 1532 1531 1531 1531
1544 1544 1544 1543 1543 1542 1542 1541 1540 1540 1540 1539 1538 1538 1537 1536 1536 1535 1535 1535 1535 1534 1534 1533 1533 1532 1532 1531 1531 1530 1529 1528 1528 1528 1528 1528 1528 1528 1528 1528 1528 1529 1529 1529 1530 1530 1531 1531 1531 1532 1533 1533 1534 1534 1535 1535 1535 1536 1536 1536 1536 1536 1536 1536 1536 1536 1536 1535 1535 1534 1534 1534 1533 1533 1533 1533 1533 1533 1533 1533 1532 1532 1532 1531 1531
1544 1544 1544 1543 1543 1543 1542 1541 1541 1540 1540 1540 1539 1538 1537 1536 1536 1536 1536 1535 1535 1535 1534 1534 1533 1533 1532 1532 1531 1530 1530 1529 1529 1529 1529 1529 1529 1529 1529 1529 1529 1529 1530 1530 1531 1531 1531 1532 1532 1533 1533 1534 1535 1535 1535 1536 1536 1536 1537 1537 1537 1537 1537 1537 1536 1536 1535 1535 1534 1534 1534 1534 1534 1534 1534 1534 1534 1533 1533 1533 1533 1533 1532 1532 1531
1544 1543 1543 1543 1543 1542 1542 1541 1541 1540 1540 1540 1539 1538 1537 1537 1536 1536 1536 1536 1536 1535 1535 1535 1534 1533 1533 1532 1532 1531 1531 1530 1530 1530 1530 1530 1530 1530 1530 1530 1530 1530 1530 1531 1531 1532 1532 1532 1533 1533 1534 1535 1535 1536 1536 1536 1536 1537 1537 1537 1537 1537 1536 1536 1536 1536 1535 1535 1535 1535 1535 1535 1534 1534 1534 1534 1534 1534 1534 1534 1533 1533 1533 1532 1531
1543 1543 1543 1543 1543 1542 1542 1542 1541 1540 1540 1540 1539 1538 1537 1536 1536 1536 1536 1536 1536 1536 1535 1535 1535 1534 1534 1533 1533 1532 1532 1531 1531 1531 1531 1531 1531 1531 1531 1531 1531 1531 1531 1532 1532 1532 1532 1533 1534 1534 1535 1535 1536 1536 1536 1536 1536 1537 1537 1537 1536 1536 1536 1536 1536 1536 1535 1535 1535 1535 1535 1535 1535 1535 1535 1535 1534 1534 1534 1534 1534 1533 1533 1532 1532
1543 1543 1542 1542 1542 1542 1542 1541 1541 1540 1540 1540 1539 1538 1537 1537 1536 1536 1536 1536 1536 1536 1535 1535 1535 1535 1534 1534 1534 1534 1533 1533 1532 1532 1532 1532 1532 1532 1532 1532 1532 1532 1532 1532 1532 1533 1533 1534 1534 1535 1535 1536 1536 1536 1536 1536 1536 1536 1536 1536 1536 1536 1536 1536 1536 1536 1536 1536 1536 1535 1535 1535 1535 1535 1535 1535 1535 1534 1534 1534 1533 1533 1533 1532 1532
1542 1542 1542 1542 1541 1541 1541 1541 1540 1540 1540 1540 1539 1538 1538 1537 1536 1536 1536 1536 1536 1536 1535 1535 1535 1535 1535 1535 1535 1535 1534 1534 1533 1533 1532 1532 1532 1532 1532 1532 1532 1532 1533 1533 1533 1533 1533 1534 1534 1535 1535 1535 1536 1536 1536 1536 1536 1536 1536 1536 1536 1536 1536 1537 1537 1537 1536 1536 1536 1536 1536 1536 1535 1535 1535 1535 1534 1534 1534 1533 1533 1533 1532 1532 1531
1542 1542 1541 1541 1541 1540 1540 1540 1540 1539 1539 1539 1539 1538 1538 1537 1537 1536 1536 1536 1536 1536 1536 1535 1535 1535 1535 1535 1535 1535 1535 1535 1534 1534 1533 1533 1532 1532 1532 1533 1533 1533 1533 1533 1533 1533 1534 1534 1534 1535 1535 1535 1535 1535 1536 1536 1536 1536 1536 1537 1537 1537 1537 1537 1537 1537 1537 1537 1536 1536 1536 1536 1536 1535 1535 1534 1534 1533 1533 1532 1532 1532 1531 1531 1531
1542 1541 1541 1540 1540 1540 1540 1539 1539 1539 1539 1538 1538 1538 1538 1537 1537 1536 1536 1536 1536 1536 1536 1536 1536 1536 1536 1535 1535 1536 1535 1535 1535 1534 1534 1533 1533 1533 1533 1533 1533 1533 1533 1533 1533 1533 1534 1534 1534 1535 1535 1535 1535 1536 1536 1536 1536 1537 1537 1537 1537 1537 1537 1537 1537 1537 1537 1537 1536 1536 1536 1536 1535 1534 1534 1533 1532 1532 1531 1531 1530 1530 1530 1530 1530
1542 1541 1541 1540 1540 1539 1539 1539 1539 1538 1538 1538 1538 1537 1537 1537 1537 1536 1536 1536 1536 1536 1536 1536 1536 1536 1536 1535 1535 1535 1535 1535 1535 1535 1535 1534 1534 1534 1534 1534 1534 1533 1533 1533 1533 1534 1534 1534 1535 1535 1535 1535 1536 1536 1536 1536 1537 1537 1537 1537 1537 1537 1537 1537 1537 1537 1537 1536 1536 1536 1535 1535 1534 1533 1532 1532 1531 1530 1530 1529 1529 1528 1528 1528 1528
1542 1541 1540 1540 1539 1539 1538 1538 1537 1537 1537 1537 1537 1536 1536 1536 1536 1536 1536 1536 1536 1536 1535 1535 1536 1536 1535 1535 1535 1535 1535 1535 1535 1535 1535 1535 1535 1534 1534 1534 1534 1534 1534 1534 1534 1534 1534 1535 1535 1535 1535 1535 1536 1536 1536 1536 1536 1537 1537 1537 1537 1537 1537 1537 1537 1537 1536 1536 1535 1535 1534 1534 1533 1532 1532 1531 1530 1529 1529 1528 1528 1527 1527 1527 1527
1542 1541 1540 1540 1539 1538 1537 1536 1535 1535 1535 1535 1535 1536 1535 1535 1536 1536 1536 1536 1535 1535 1535 1535 1535 1535 1535 1535 1535 1535 1535 1535 1535 1535 1535 1535 1535 1535 1534 1534 1534 1534 1534 1534 1534 1535 1535 1535 1535 1535 1535 1535 1535 1536 1536 1536 1536 1536 1537 1537 1537 1537 1537 1536 1536 1536 1536 1535 1535 1534 1534 1533 1533 1532 1531 1531 1530 1529 1528 1528 1527 1526 1526 1526 1526